Regional Weather Roundup
Issued by NWS

Home | Current Version | Previous Version | Text Only | Print | Product List | Glossary On
Versions: 1 2 3 4 5 6 7 8 9 10 11 12 13 14 15 16 17 18 19 20 21 22 23 24 25 26 27 28 29 30 31 32 33 34 35 36 37 38 39 40 41 42 43 44 45 46 47 48 49 50
000
ASUS44 KJAN 051310
RWRMS

MISSISSIPPI HOURLY WEATHER ROUNDUP
NATIONAL WEATHER SERVICE JACKSON MS
800 AM CDT SAT SEP 05 2015

NOTE: "FAIR: INDICATES FEW OR NO CLOUDS BELOW 12,000 FEET WITH NO
SIGNIFICANT WEATHER AND/OR OBSTRUCTIONS TO VISIBILITY.

MSZ001>002-007>008-010>013-018>021-025>028-034>036-051400-
NORTHWEST MISSISSIPPI

CITY           SKY/WX    TMP DP  RH WIND       PRES   REMARKS
CLARKSDALE     FAIR      75  75 100 CALM      30.07R
CLEVELAND      FAIR      78  74  89 E3        30.04R
GREENWOOD      SUNNY     76  70  82 CALM      30.05R
GREENVILLE     SUNNY     78  72  81 CALM      30.03R
OLIVE BRANCH   SUNNY     75  73  94 CALM      30.08R
OXFORD         FAIR      72  68  88 CALM      30.09R
TUNICA           N/A    N/A N/A N/A MISG        N/A
$$

MSZ003>006-009-014>017-022>024-029>033-037>039-051400-
NORTHEAST MISSISSIPPI

CITY           SKY/WX    TMP DP  RH WIND       PRES   REMARKS
COLUMBUS AFB   SUNNY     74  72  92 CALM      30.05R
CORINTH        FAIR      70  70 100 CALM      30.08R FOG
GOLDN TRIANGLE SUNNY     75  70  83 N5        30.05R
STARKVILLE     FAIR      73  72  94 CALM      30.06R
TUPELO         SUNNY     75  71  87 NE5       30.07R
$$

MSZ040-058-051400-
CENTRAL MISSISSIPPI

CITY           SKY/WX    TMP DP  RH WIND       PRES   REMARKS
JACKSON INTL   MOSUNNY   78  72  81 CALM      30.04R
JACKSON HAWKNS SUNNY     78  74  87 CALM      30.04R
MERIDIAN KEY   SUNNY     76  73  91 CALM      30.05R
MERIDIAN NAS   SUNNY     75  71  87 CALM      30.05R
VICKSBURG      SUNNY     78  74  87 CALM      30.03R
$$

MSZ059>079-051400-
SOUTH MISSISSIPPI

CITY           SKY/WX    TMP DP  RH WIND       PRES   REMARKS
BROOKHAVEN       N/A     77  75  94 W5        30.07R
HATTIESBURG    SUNNY     78  73  84 CALM      30.04R
MCCOMB         SUNNY     76  76 100 N3        30.05R
NATCHEZ        MOSUNNY   75  73  94 CALM      30.06R
PINE BELT      SUNNY     79  57  47 CALM      30.05S
$$

MSZ080>082-051400-
COASTAL MISSISSIPPI

CITY           SKY/WX    TMP DP  RH WIND       PRES   REMARKS
BAY ST LOUIS   MOSUNNY   73  70  88 CALM      30.04R
BILOXI         SUNNY     79  76  89 NW6       30.02R
PASCAGOULA     SUNNY     77  75  93 CALM      30.02S
GULFPORT       SUNNY     77  74  90 NW5       30.02S
$$



USA.gov is the U.S. government's official web portal to all federal, state and local government web resources and services.